1517173200.63,4605,8.19,73710.0,-6.25,-6.13,-6.13,0,*66
1517173201.82,4606,8.13,73724.8,-6.25,-6.09,-6.09,0,*65
1517173203.01,4607,8.19,73708.0,-6.25,-5.97,-6.13,0,*6B
1517173204.22,4608,8.19,73728.8,-6.29,-6.05,-6.05,0,*67
1517173205.41,4609,8.13,73742.8,-6.25,-6.01,-6.01,0,*6A
1517173206.61,4610,8.13,73758.0,-6.25,-6.13,-6.09,0,*69
1517173207.86,4611,8.13,73764.3,-6.25,-5.85,-5.77,0,*6E
1517173209.09,4612,8.13,73754.8,-6.29,-5.39,-5.31,0,*64
1517173210.29,4613,8.13,73746.0,-6.25,-5.47,-5.51,0,*66
1517173211.56,4614,8.13,73750.0,-6.23,-5.73,-5.77,0,*64
1517173212.8,4615,8.19,73756.5,-6.23,-5.85,-5.97,0,*62
1517173214.02,4616,8.13,73748.5,-6.23,-6.31,-6.39,0,*6A
1517173215.24,4617,8.13,73734.8,-6.23,-6.31,-6.39,0,*6B
1517173216.5,4618,8.13,73718.3,-6.23,-6.23,-6.27,0,*68
1517173217.75,4619,8.19,73730.5,-6.23,-6.13,-6.27,0,*6A
1517173218.99,4620,8.13,73712.8,-6.23,-6.27,-6.31,0,*60
1517173220.22,4621,8.19,73748.3,-6.23,-6.31,-6.31,0,*66
1517173221.41,4622,8.13,73740.0,-6.25,-6.31,-6.39,0,*6B
1517173222.61,4623,8.13,73738.5,-6.25,-6.31,-6.51,0,*64
1517173223.82,4624,8.13,73748.3,-6.29,-6.47,-6.59,0,*66
1517173225.04,4625,8.13,73772.8,-6.25,-6.27,-6.39,0,*6B
1517173226.25,4626,8.13,73794.5,-6.29,-6.43,-6.47,0,*6F
1517173227.47,4627,8.13,73800.3,-6.29,-6.59,-6.59,0,*6A
1517173228.68,4628,8.13,73794.5,-6.29,-6.43,-6.43,0,*65
1517173229.89,4629,8.19,73790.3,-6.29,-6.47,-6.59,0,*6B
1517173231.11,4630,8.13,73794.8,-6.29,-6.55,-6.59,0,*60
1517173232.32,4631,8.13,73792.8,-6.29,-6.55,-6.59,0,*61
1517173233.54,4632,8.13,73784.5,-6.29,-6.31,-6.31,0,*6E
1517173234.77,4633,8.13,73762.8,-6.31,-6.27,-6.27,0,*66
1517173235.97,4634,8.13,73764.5,-6.31,-6.35,-6.35,0,*61
1517173237.16,4635,8.13,73776.5,-6.31,-6.31,-6.35,0,*64
1517173238.39,4636,8.13,73792.8,-6.31,-6.27,-6.27,0,*63
1517173239.64,4637,8.13,73798.8,-6.33,-6.23,-6.31,0,*63
1517173240.85,4638,8.13,73798.0,-6.31,-6.13,-6.27,0,*6A
1517173242.08,4639,8.13,73798.5,-6.31,-6.27,-6.27,0,*6C
1517173243.27,4640,8.13,73796.3,-6.31,-6.31,-6.35,0,*66
1517173244.51,4641,8.13,73800.5,-6.31,-6.27,-6.27,0,*63
1517173245.72,4642,8.13,73802.5,-6.33,-6.35,-6.39,0,*6E
1517173246.92,4643,8.13,73800.5,-6.31,-6.35,-6.35,0,*61
1517173248.11,4644,8.13,73798.8,-6.31,-6.31,-6.35,0,*62
1517173249.3,4645,8.19,73800.0,-6.31,-6.43,-6.47,0,*63
1517173250.49,4646,8.13,73802.3,-6.31,-6.43,-6.47,0,*60
1517173251.68,4647,8.13,73788.8,-6.31,-6.43,-6.47,0,*61
1517173252.87,4648,8.19,73792.0,-6.31,-6.43,-6.55,0,*6D
1517173254.09,4649,8.13,73784.3,-6.33,-6.35,-6.47,0,*6C
1517173255.31,4650,8.13,73766.8,-6.33,-6.39,-6.59,0,*67
1517173256.55,4651,8.13,73750.8,-6.33,-6.51,-6.63,0,*61
1517173257.77,4652,8.13,73746.8,-6.33,-6.39,-6.51,0,*6D
1517173258.98,4653,8.13,73742.5,-6.33,-6.31,-6.39,0,*6A
1517173260.19,4654,8.13,73750.3,-6.33,-6.39,-6.39,0,*65
1517173261.41,4655,8.13,73772.8,-6.33,-6.31,-6.35,0,*60
1517173262.61,4656,8.13,73768.5,-6.35,-6.31,-6.35,0,*65
1517173263.79,4657,8.13,73766.5,-6.35,-6.39,-6.39,0,*60
1517173264.98,4658,8.19,73770.3,-6.35,-6.39,-6.39,0,*6F
1517173266.17,4659,8.13,73780.0,-6.35,-6.31,-6.35,0,*6A
1517173267.37,4660,8.13,73780.8,-6.35,-6.31,-6.31,0,*64
1517173268.57,4661,8.13,73774.8,-6.35,-6.35,-6.31,0,*61
1517173269.76,4662,8.13,73768.5,-6.35,-6.39,-6.35,0,*6A
1517173270.95,4663,8.13,73764.0,-6.35,-6.39,-6.39,0,*67
1517173272.15,4664,8.19,73768.0,-6.35,-6.35,-6.39,0,*6C
1517173273.33,4665,8.13,73760.3,-6.35,-6.39,-6.39,0,*61
1517173274.54,4666,8.13,73754.3,-6.37,-6.43,-6.39,0,*6D
1517173275.74,4667,8.13,73764.8,-6.35,-6.31,-6.35,0,*67
1517173276.93,4668,8.19,73778.3,-6.35,-6.31,-6.35,0,*68
1517173278.13,4669,8.13,73770.3,-6.35,-6.35,-6.31,0,*69
1517173279.33,4670,8.13,73748.3,-6.35,-6.31,-6.31,0,*65
1517173280.53,4671,8.13,73758.8,-6.35,-6.31,-6.31,0,*64
1517173281.72,4672,8.13,73778.3,-6.35,-6.31,-6.31,0,*67
1517173282.94,4673,8.13,73782.3,-6.37,-6.35,-6.43,0,*65
1517173284.16,4674,8.13,73748.0,-6.37,-6.35,-6.35,0,*63
1517173285.42,4675,8.13,73734.5,-6.37,-6.27,-6.27,0,*62
1517173286.63,4676,8.13,73746.5,-6.35,-6.09,-6.23,0,*6B
1517173287.84,4677,8.13,73740.8,-6.37,-6.01,-6.13,0,*63
1517173289.06,4678,8.13,73754.3,-6.35,-6.05,-6.19,0,*60
1517173290.29,4679,8.13,73760.5,-6.37,-6.01,-6.23,0,*6E
1517173291.48,4680,8.13,73760.3,-6.35,-5.97,-6.09,0,*6E
1517173292.72,4681,8.13,73782.5,-6.37,-6.09,-6.23,0,*61
1517173293.91,4682,8.13,73788.3,-6.35,-6.05,-6.09,0,*64
1517173295.09,4683,8.13,73760.5,-6.35,-5.97,-6.09,0,*6D
1517173296.28,4684,8.13,73764.5,-6.35,-5.97,-6.05,0,*66
1517173297.47,4685,8.13,73762.3,-6.35,-5.97,-6.05,0,*67
1517173298.72,4686,8.13,73768.0,-6.35,-5.85,-5.85,0,*6C
1517173299.97,4687,8.13,73776.5,-6.35,-5.85,-5.93,0,*6A
1517173301.19,4688,8.13,73750.0,-6.35,-5.85,-5.97,0,*61
1517173302.38,4689,8.13,73754.0,-6.35,-5.97,-6.05,0,*6B
1517173303.59,4690,8.13,73748.0,-6.33,-5.97,-6.09,0,*69
1517173304.77,4691,8.13,73738.3,-6.31,-6.05,-6.05,0,*6E
1517173306.01,4692,8.13,73722.5,-6.33,-6.19,-6.09,0,*6E
1517173307.25,4693,8.13,73734.0,-6.33,-6.09,-6.19,0,*6F
1517173308.49,4694,8.13,73774.5,-6.33,-6.09,-6.23,0,*61
1517173309.68,4695,8.19,73770.8,-6.31,-6.05,-6.13,0,*6D
1517173310.95,4696,8.13,73760.3,-6.33,-6.19,-6.19,0,*6B
1517173312.22,4697,8.13,73792.3,-6.33,-6.19,-6.19,0,*6A
1517173313.49,4698,8.13,73764.5,-6.33,-6.19,-6.19,0,*65
1517173314.76,4699,8.13,73774.8,-6.33,-6.19,-6.19,0,*64
1517173316.02,4700,8.13,73804.8,-6.33,-6.23,-6.23,0,*65
1517173317.26,4701,8.13,73768.5,-6.33,-6.23,-6.31,0,*67
1517173318.5,4702,8.13,73790.5,-6.33,-6.23,-6.31,0,*64
1517173319.74,4703,8.13,73782.3,-6.33,-6.09,-6.23,0,*6E
1517173321.0,4704,8.13,73796.3,-6.33,-6.19,-6.23,0,*68
1517173322.24,4705,8.13,73788.5,-6.31,-6.19,-6.27,0,*6F
1517173323.49,4706,8.13,73774.8,-6.33,-6.23,-6.31,0,*60
1517173324.73,4707,8.13,73794.0,-6.33,-6.23,-6.31,0,*61
1517173325.95,4708,8.19,73776.3,-6.33,-6.35,-6.35,0,*6D
1517173327.17,4709,8.19,73778.8,-6.33,-6.31,-6.31,0,*6C
1517173328.39,4710,8.13,73762.5,-6.33,-6.31,-6.35,0,*60
1517173329.61,4711,8.13,73732.8,-6.33,-6.31,-6.31,0,*65
1517173330.83,4712,8.13,73750.0,-6.33,-6.31,-6.31,0,*66
1517173332.09,4713,8.19,73768.8,-6.33,-6.23,-6.23,0,*67
1517173333.35,4714,8.13,73782.8,-6.33,-6.23,-6.19,0,*69
1517173334.59,4715,8.13,73784.8,-6.33,-6.31,-6.23,0,*62
1517173335.78,4716,8.13,73798.0,-6.35,-6.31,-6.35,0,*60
1517173336.99,4717,8.13,73768.8,-6.33,-6.05,-6.09,0,*6F
1517173338.18,4718,8.13,73764.8,-6.35,-6.09,-6.09,0,*6A
1517173339.4,4719,8.13,73770.8,-6.35,-6.35,-6.23,0,*6C
1517173340.62,4720,8.13,73758.8,-6.33,-6.31,-6.31,0,*67
1517173341.84,4721,8.13,73736.5,-6.33,-6.31,-6.31,0,*66
1517173343.11,4722,8.13,73746.5,-6.33,-6.23,-6.19,0,*6C
1517173344.37,4723,8.13,73754.5,-6.33,-6.23,-6.23,0,*64
1517173345.6,4724,8.13,73762.0,-6.35,-6.23,-6.23,0,*65
1517173346.81,4725,8.13,73732.5,-6.37,-6.43,-6.39,0,*6B
1517173348.01,4726,8.13,73732.5,-6.35,-6.35,-6.35,0,*67
1517173349.21,4727,8.13,73748.8,-6.35,-6.31,-6.31,0,*66
1517173350.46,4728,8.13,73752.3,-6.35,-6.19,-6.19,0,*69
1517173351.68,4729,8.13,73734.8,-6.35,-6.09,-6.19,0,*69
1517173352.93,4730,8.13,73752.5,-6.35,-6.19,-6.19,0,*60
1517173354.18,4731,8.19,73756.0,-6.37,-6.27,-6.27,0,*63
1517173355.42,4732,8.13,73746.5,-6.35,-6.23,-6.23,0,*62
1517173356.66,4733,8.13,73744.5,-6.37,-6.35,-6.27,0,*62
1517173357.91,4734,8.19,73750.0,-6.37,-6.27,-6.23,0,*62
1517173359.16,4735,8.13,73756.5,-6.35,-6.23,-6.19,0,*6C
1517173360.34,4736,8.13,73754.3,-6.35,-6.05,-6.09,0,*6A
1517173361.55,4737,8.13,73758.5,-6.37,-6.09,-6.01,0,*6D
1517173362.77,4738,8.13,73772.5,-6.37,-6.01,-6.01,0,*6A
1517173363.98,4739,8.13,73774.0,-6.37,-5.97,-5.97,0,*6B
1517173365.19,4740,8.13,73766.0,-6.35,-5.93,-5.97,0,*63
1517173366.44,4741,8.13,73768.0,-6.35,-5.93,-5.93,0,*66
1517173367.65,4742,8.13,73764.3,-6.37,-5.97,-6.01,0,*6B
1517173368.87,4743,8.13,73770.8,-6.35,-5.93,-5.97,0,*60
1517173370.08,4744,8.13,73760.8,-6.37,-6.01,-6.09,0,*69
1517173371.27,4745,8.13,73770.3,-6.35,-5.97,-6.05,0,*6A
1517173372.48,4746,8.13,73776.5,-6.37,-6.01,-6.01,0,*63
1517173373.67,4747,8.13,73780.8,-6.35,-5.97,-5.97,0,*60
1517173374.91,4748,8.13,73778.8,-6.35,-5.93,-5.93,0,*6F
1517173376.16,4749,8.13,73786.8,-6.35,-5.93,-5.93,0,*6E
1517173377.38,4750,8.13,73802.5,-6.35,-5.97,-5.93,0,*62
1517173378.63,4751,8.13,73778.8,-6.35,-5.93,-5.85,0,*60
1517173379.88,4752,8.13,73768.5,-6.35,-5.93,-5.85,0,*63
1517173381.12,4753,8.13,73774.3,-6.35,-5.81,-5.81,0,*65
1517173382.37,4754,8.13,73770.3,-6.35,-5.81,-5.81,0,*62
1517173383.61,4755,8.19,73780.5,-6.35,-5.73,-5.81,0,*6E
1517173384.84,4756,8.13,73786.8,-6.35,-5.73,-5.81,0,*6D
1517173386.11,4757,8.19,73804.3,-6.33,-5.69,-5.73,0,*6C
1517173387.35,4758,8.13,73804.0,-6.31,-5.77,-5.81,0,*63
1517173388.6,4759,8.13,73796.5,-6.33,-5.55,-5.61,0,*6E
1517173389.87,4760,8.13,73792.0,-6.33,-5.61,-5.61,0,*63
1517173391.13,4761,8.13,73778.3,-6.33,-5.61,-5.69,0,*6A
1517173392.4,4762,8.13,73766.3,-6.33,-5.61,-5.61,0,*61
1517173393.66,4763,8.13,73758.0,-6.33,-5.61,-5.69,0,*68
1517173394.88,4764,8.13,73760.3,-6.31,-5.55,-5.65,0,*66
1517173396.1,4765,8.19,73774.3,-6.31,-5.55,-5.69,0,*6B
1517173397.32,4766,8.13,73780.0,-6.31,-5.55,-5.69,0,*68
1517173398.52,4767,8.13,73786.3,-6.31,-5.51,-5.55,0,*62
1517173399.72,4768,8.19,73790.3,-6.31,-5.55,-5.55,0,*69
1517173400.96,4769,8.13,73778.0,-6.31,-5.65,-5.69,0,*64
1517173402.22,4770,8.13,73774.3,-6.29,-5.69,-5.69,0,*69
1517173403.49,4771,8.19,73792.5,-6.29,-5.69,-5.69,0,*68
1517173404.75,4772,8.13,73786.3,-6.29,-5.69,-5.69,0,*6B
1517173406.01,4773,8.13,73788.8,-6.29,-5.69,-5.69,0,*6A
1517173407.26,4774,8.13,73788.0,-6.25,-5.73,-5.61,0,*62
1517173408.52,4775,8.13,73800.8,-6.29,-5.65,-5.65,0,*6C
1517173409.79,4776,8.13,73796.8,-6.29,-5.69,-5.65,0,*63
1517173411.05,4777,8.13,73780.0,-6.29,-5.69,-5.65,0,*62
1517173412.31,4778,8.19,73776.5,-6.29,-5.69,-5.69,0,*61
1517173413.58,4779,8.19,73782.3,-6.29,-5.65,-5.65,0,*60
1517173414.84,4780,8.13,73790.5,-6.29,-5.65,-5.69,0,*6A
1517173416.05,4781,8.13,73776.3,-6.29,-5.39,-5.47,0,*6E
1517173417.29,4782,8.13,73770.5,-6.29,-5.51,-5.69,0,*6F
1517173418.55,4783,8.13,73770.8,-6.29,-5.81,-5.93,0,*66
1517173419.82,4784,8.13,73772.8,-6.29,-5.89,-5.81,0,*6A
1517173421.08,4785,8.13,73748.8,-6.29,-5.81,-5.89,0,*6B
1517173422.35,4786,8.13,73742.0,-6.29,-5.77,-5.77,0,*60
1517173423.61,4787,8.13,73724.3,-6.29,-5.69,-5.77,0,*6E
1517173424.87,4788,8.19,73834.5,-6.29,-5.69,-5.77,0,*61
1517173426.11,4789,8.19,73758.3,-6.25,-5.61,-5.61,0,*63
1517173427.38,4790,8.19,73746.5,-6.29,-5.65,-5.65,0,*67
1517173428.62,4791,8.13,73748.8,-6.25,-5.61,-5.73,0,*69
1517173429.88,4792,8.13,73740.3,-6.29,-5.69,-5.69,0,*65
1517173431.15,4793,8.13,73758.8,-6.29,-5.65,-5.69,0,*68
1517173432.41,4794,8.13,73744.3,-6.29,-5.65,-5.65,0,*63
1517173433.67,4795,8.13,73728.8,-6.29,-5.69,-5.69,0,*62
1517173434.92,4796,8.13,73732.3,-6.25,-5.69,-5.73,0,*66
1517173436.15,4797,8.13,73738.3,-6.25,-5.73,-5.73,0,*6C
1517173437.39,4798,8.19,73738.8,-6.25,-5.73,-5.73,0,*63
1517173438.63,4799,8.13,73748.8,-6.25,-5.65,-5.73,0,*65
1517173439.9,4800,8.13,73798.3,-6.29,-5.69,-5.65,0,*6D
1517173441.13,4801,8.13,73814.8,-6.25,-5.51,-5.61,0,*6F
1517173442.33,4802,8.13,73784.8,-6.25,-5.47,-5.51,0,*68
1517173443.53,4803,8.19,73756.5,-6.25,-5.47,-5.51,0,*69
1517173444.75,4804,8.19,73778.5,-6.29,-5.51,-5.55,0,*61
1517173445.94,4805,8.13,73800.8,-6.25,-5.47,-5.47,0,*68
1517173447.14,4806,8.13,73770.5,-6.25,-5.47,-5.47,0,*6B
1517173448.34,4807,8.13,73778.5,-6.25,-5.47,-5.47,0,*6A
1517173449.53,4808,8.13,73794.5,-6.25,-5.47,-5.47,0,*65
1517173450.73,4809,8.13,73810.8,-6.25,-5.51,-5.47,0,*63
1517173451.93,4810,8.13,73800.3,-6.25,-5.51,-5.43,0,*6F
1517173453.13,4811,8.19,73768.5,-6.25,-5.47,-5.47,0,*6D
1517173454.35,4812,8.13,73760.0,-6.23,-5.47,-5.47,0,*68
1517173455.57,4813,8.19,73790.3,-6.23,-5.51,-5.47,0,*6E
1517173456.79,4814,8.13,73810.3,-6.23,-5.47,-5.47,0,*6E
1517173458.0,4815,8.19,73790.3,-6.23,-5.35,-5.35,0,*6F
1517173459.25,4816,8.19,73800.5,-6.21,-5.27,-5.27,0,*6E
1517173460.5,4817,8.19,73772.0,-6.21,-5.15,-5.07,0,*6C
1517173461.72,4818,8.13,73770.8,-6.21,-4.99,-5.07,0,*66
1517173462.94,4819,8.13,73764.5,-6.21,-4.57,-4.69,0,*6C
1517173464.16,4820,8.19,73780.0,-6.19,-4.37,-4.49,0,*69
1517173465.38,4821,8.13,73768.5,-6.19,-4.17,-4.37,0,*63
1517173466.57,4822,8.13,73748.5,-6.17,-4.37,-4.49,0,*65
1517173467.78,4823,8.13,73760.3,-6.17,-4.53,-4.73,0,*6F
1517173468.98,4824,8.13,73778.3,-6.13,-4.49,-4.61,0,*64
1517173470.17,4825,8.13,73764.8,-6.13,-4.33,-4.41,0,*6A
1517173471.41,4826,8.13,73762.0,-6.13,-4.73,-4.73,0,*6C
1517173472.63,4827,8.13,73762.5,-6.13,-4.99,-5.07,0,*6B
1517173473.83,4828,8.13,73758.0,-6.13,-5.39,-5.47,0,*6B
1517173475.02,4829,8.13,73760.0,-6.13,-5.39,-5.51,0,*6D
1517173476.22,4830,8.19,73780.5,-6.13,-5.35,-5.35,0,*6B
1517173477.49,4831,8.19,73766.0,-6.11,-5.11,-5.19,0,*60
1517173478.76,4832,8.19,73750.0,-6.11,-5.23,-5.31,0,*68
1517173479.95,4833,8.13,73734.5,-6.09,-5.35,-5.35,0,*63
1517173481.14,4834,8.19,73736.8,-6.09,-5.43,-5.47,0,*60
1517173482.36,4835,8.13,73742.8,-6.11,-5.47,-5.47,0,*6C
1517173483.6,4836,8.19,73722.5,-6.11,-5.61,-5.51,0,*6C
1517173484.8,4837,8.13,73726.0,-6.09,-5.47,-5.43,0,*63
1517173486.02,4838,8.13,73728.5,-6.11,-5.47,-5.47,0,*61
1517173487.24,4839,8.13,73740.8,-6.11,-5.51,-5.51,0,*60
1517173488.51,4840,8.13,73724.8,-6.11,-5.61,-5.65,0,*6A
1517173489.78,4841,8.13,73734.3,-6.11,-5.65,-5.65,0,*6F
1517173491.04,4842,8.13,73716.5,-6.11,-5.73,-5.73,0,*6C
1517173492.31,4843,8.13,73712.0,-6.11,-5.65,-5.73,0,*6A
1517173493.57,4844,8.13,73724.8,-6.11,-5.61,-5.65,0,*6E
1517173494.79,4845,8.13,73744.5,-6.11,-5.35,-5.39,0,*67
1517173496.01,4846,8.13,73762.3,-6.11,-5.35,-5.39,0,*64
1517173497.23,4847,8.19,73764.3,-6.11,-5.35,-5.35,0,*69
1517173498.44,4848,8.13,73768.8,-6.09,-5.31,-5.35,0,*6B
1517173499.69,4849,8.19,73774.3,-6.11,-5.23,-5.35,0,*60
1517173500.94,4850,8.19,73744.8,-6.09,-5.27,-5.31,0,*61
1517173502.16,4851,8.19,73730.5,-6.09,-5.31,-5.43,0,*62
1517173503.35,4852,8.13,73774.8,-6.09,-5.35,-5.47,0,*61
1517173504.54,4853,8.13,73760.8,-6.09,-5.35,-5.47,0,*60
1517173505.76,4854,8.13,73754.8,-6.09,-5.31,-5.43,0,*67
1517173506.97,4855,8.13,73776.5,-6.09,-5.31,-5.43,0,*66
1517173508.22,4856,8.13,73754.3,-6.09,-5.31,-5.31,0,*60
1517173509.47,4857,8.13,73744.8,-6.07,-5.31,-5.43,0,*6A
1517173510.66,4858,8.13,73744.3,-6.09,-5.35,-5.43,0,*6F
1517173511.88,4859,8.13,73742.3,-6.09,-5.47,-5.61,0,*6B
1517173513.11,4860,8.13,73766.8,-6.09,-5.55,-5.61,0,*62
1517173514.35,4861,8.13,73762.3,-6.09,-5.61,-5.81,0,*6A
1517173515.59,4862,8.13,73782.0,-6.09,-5.69,-5.73,0,*6C
1517173516.83,4863,8.19,73772.8,-6.09,-5.61,-5.73,0,*65
1517173518.07,4864,8.19,73798.0,-6.09,-5.69,-5.69,0,*61
1517173519.3,4865,8.13,73786.8,-6.09,-5.73,-5.73,0,*60
1517173520.54,4866,8.13,73760.5,-6.09,-5.73,-5.73,0,*63
1517173521.78,4867,8.13,73786.0,-6.09,-5.73,-5.85,0,*6B
1517173523.04,4868,8.13,73764.0,-6.07,-5.73,-5.81,0,*6E
1517173524.31,4869,8.19,73756.5,-6.07,-5.73,-5.85,0,*6B
1517173525.56,4870,8.19,73776.5,-6.09,-5.69,-5.81,0,*62
1517173526.83,4871,8.13,73784.0,-6.07,-5.69,-5.81,0,*6D
1517173528.09,4872,8.13,73784.8,-6.07,-5.69,-5.73,0,*63
1517173529.36,4873,8.19,73756.0,-6.07,-5.69,-5.73,0,*62
1517173530.63,4874,8.13,73770.8,-6.07,-5.69,-5.81,0,*68
1517173531.9,4875,8.19,73786.8,-6.07,-5.73,-5.81,0,*62
1517173533.17,4876,8.19,73774.5,-6.07,-5.81,-5.85,0,*68
1517173534.41,4877,8.13,73752.8,-6.07,-5.85,-5.97,0,*6E
1517173535.66,4878,8.13,73772.5,-6.07,-5.93,-5.97,0,*66
1517173536.93,4879,8.13,73776.0,-6.07,-5.93,-5.93,0,*63
1517173538.18,4880,8.13,73774.5,-6.09,-5.81,-5.93,0,*68
1517173539.43,4881,8.19,73780.3,-6.09,-5.93,-5.93,0,*6A
1517173540.67,4882,8.13,73786.8,-6.07,-5.81,-5.97,0,*60
1517173541.92,4883,8.19,73788.5,-6.09,-5.81,-5.85,0,*6C
1517173543.15,4884,8.19,73792.3,-6.09,-5.73,-5.81,0,*62
1517173544.39,4885,8.13,73788.8,-6.09,-5.73,-5.85,0,*67
1517173545.62,4886,8.19,73768.0,-6.09,-5.55,-5.61,0,*6A
1517173546.86,4887,8.13,73754.8,-6.09,-5.73,-5.73,0,*6C
1517173548.13,4888,8.13,73788.3,-6.07,-5.81,-5.85,0,*69
1517173549.38,4889,8.13,73778.8,-6.07,-5.55,-5.69,0,*63
1517173550.63,4890,8.13,73764.5,-6.07,-5.47,-5.61,0,*60
1517173551.9,4891,8.13,73760.8,-6.07,-5.73,-5.85,0,*6C
1517173553.14,4892,8.13,73770.3,-6.09,-5.81,-5.93,0,*6B
1517173554.39,4893,8.13,73764.3,-6.05,-5.81,-5.93,0,*66
1517173555.66,4894,8.13,73776.0,-6.07,-5.81,-5.93,0,*63
1517173556.92,4895,8.19,73784.8,-6.07,-5.73,-5.93,0,*6F
1517173558.17,4896,8.19,73792.0,-6.07,-5.85,-5.97,0,*61
1517173559.41,4897,8.13,73814.0,-6.07,-5.81,-5.97,0,*64
1517173560.65,4898,8.13,73812.8,-6.05,-5.81,-5.93,0,*6D
1517173561.92,4899,8.19,73774.0,-6.07,-5.73,-5.81,0,*60
1517173563.13,4900,8.13,73728.8,-6.05,-5.81,-6.01,0,*65
1517173564.35,4901,8.19,73716.8,-6.05,-6.09,-6.23,0,*67
1517173565.59,4902,8.19,73754.5,-6.07,-6.23,-6.39,0,*65
1517173566.81,4903,8.13,73764.8,-6.07,-6.39,-6.47,0,*66
1517173568.03,4904,8.19,73756.3,-6.07,-6.47,-6.59,0,*67
1517173569.25,4905,8.19,73766.8,-6.07,-6.35,-6.47,0,*6C
1517173570.47,4906,8.13,73758.5,-6.09,-6.13,-6.27,0,*63
1517173571.71,4907,8.13,73762.5,-6.11,-6.27,-6.31,0,*6B
1517173572.96,4908,8.19,73752.5,-6.11,-6.27,-6.31,0,*64
1517173574.19,4909,8.13,73758.3,-6.09,-6.23,-6.27,0,*6F
1517173575.44,4910,8.19,73766.5,-6.11,-6.27,-6.31,0,*6D
1517173576.69,4911,8.13,73764.3,-6.11,-6.19,-6.31,0,*61
1517173577.91,4912,8.19,73798.5,-6.11,-6.09,-6.13,0,*63
1517173579.12,4913,8.13,73804.3,-6.11,-6.01,-6.13,0,*6A
1517173580.39,4914,8.13,73788.3,-6.11,-6.19,-6.27,0,*63
1517173581.67,4915,8.19,73784.0,-6.11,-6.19,-6.27,0,*62
1517173582.93,4916,8.19,73794.5,-6.11,-6.27,-6.27,0,*6C
1517173584.18,4917,8.13,73798.5,-6.11,-6.13,-6.19,0,*67
1517173585.42,4918,8.13,73808.8,-6.11,-6.13,-6.19,0,*68
1517173586.7,4919,8.13,73810.8,-6.11,-6.19,-6.19,0,*63
1517173587.95,4920,8.13,73804.8,-6.11,-6.09,-6.19,0,*68
1517173589.22,4921,8.13,73796.3,-6.11,-6.19,-6.19,0,*68
1517173590.47,4922,8.13,73800.5,-6.11,-6.09,-6.19,0,*6A
1517173591.7,4923,8.19,73802.0,-6.13,-6.09,-6.19,0,*69
1517173592.95,4924,8.13,73810.3,-6.13,-6.19,-6.19,0,*6F
1517173594.14,4925,8.13,73804.0,-6.13,-6.09,-6.13,0,*65
1517173595.37,4926,8.13,73782.0,-6.13,-6.09,-6.19,0,*6C
1517173596.59,4927,8.19,73770.3,-6.13,-6.19,-6.31,0,*66
1517173597.82,4928,8.19,73770.0,-6.13,-6.19,-6.31,0,*69
1517173599.04,4929,8.19,73768.0,-6.13,-6.13,-6.19,0,*68
1517173600.27,4930,8.13,73766.8,-6.13,-6.09,-6.19,0,*6B
1517173601.49,4931,8.19,73750.3,-6.13,-6.09,-6.19,0,*6A
1517173602.76,4932,8.13,73748.3,-6.11,-6.19,-6.19,0,*6A
1517173604.01,4933,8.19,73754.5,-6.13,-6.19,-6.19,0,*69
1517173605.26,4934,8.19,73766.8,-6.13,-6.19,-6.27,0,*63
1517173606.51,4935,8.19,73780.5,-6.13,-6.19,-6.19,0,*6F
1517173607.76,4936,8.13,73788.3,-6.13,-6.19,-6.19,0,*6C
1517173609.01,4937,8.13,73794.0,-6.13,-6.19,-6.19,0,*6D
1517173610.23,4938,8.13,73808.3,-6.13,-6.19,-6.09,0,*63
1517173611.42,4939,8.13,73820.5,-6.13,-6.09,-6.01,0,*6B
1517173612.64,4940,8.13,73820.3,-6.13,-6.19,-6.09,0,*6C
1517173613.83,4941,8.13,73814.3,-6.13,-6.13,-6.09,0,*67
1517173615.08,4942,8.13,73812.0,-6.13,-6.19,-6.19,0,*6F
1517173616.3,4943,8.19,73816.5,-6.13,-6.31,-6.27,0,*69
1517173617.52,4944,8.19,73808.0,-6.13,-6.27,-6.09,0,*65
1517173618.71,4945,8.13,73808.8,-6.13,-6.13,-6.09,0,*63
1517173619.9,4946,8.13,73812.5,-6.13,-6.13,-6.09,0,*60
1517173621.1,4947,8.13,73834.8,-6.13,-6.09,-6.01,0,*62
1517173622.29,4948,8.13,73830.8,-6.13,-6.09,-5.97,0,*61
1517173623.53,4949,8.19,73816.3,-6.13,-5.73,-5.65,0,*63
1517173624.72,4950,8.13,73772.3,-6.13,-5.39,-5.35,0,*60
1517173625.92,4951,8.19,73770.8,-6.13,-5.47,-5.47,0,*6D
1517173627.14,4952,8.13,73752.5,-6.13,-5.61,-5.51,0,*6D
1517173628.39,4953,8.19,73752.3,-6.13,-5.77,-5.65,0,*6C
1517173629.61,4954,8.13,73742.8,-6.13,-5.23,-5.35,0,*6F
1517173630.86,4955,8.13,73748.3,-6.13,-5.19,-5.19,0,*69
1517173632.13,4956,8.13,73756.0,-6.11,-5.31,-5.31,0,*68
1517173633.38,4957,8.13,73740.3,-6.09,-5.15,-5.27,0,*61
1517173634.62,4958,8.13,73752.0,-6.09,-4.93,-5.07,0,*63
1517173635.87,4959,8.13,73750.8,-6.09,-4.89,-5.03,0,*6D
1517173637.12,4960,8.13,73760.3,-6.09,-5.07,-5.15,0,*67
1517173638.36,4961,8.13,73734.3,-6.09,-5.19,-5.31,0,*6F
1517173639.62,4962,8.19,73710.5,-6.07,-5.73,-5.73,0,*68
1517173640.89,4963,8.19,73712.0,-6.07,-5.61,-5.61,0,*69
1517173642.09,4964,8.13,73706.5,-6.05,-5.43,-5.55,0,*6B
1517173643.35,4965,8.19,73714.5,-6.07,-5.61,-5.73,0,*6C
1517173644.6,4966,8.13,73736.0,-6.05,-5.69,-5.81,0,*68
1517173645.84,4967,8.19,73748.3,-6.05,-5.81,-5.93,0,*6C
1517173647.08,4968,8.19,73772.3,-6.05,-5.77,-5.81,0,*69
1517173648.35,4969,8.19,73760.8,-6.07,-5.69,-5.81,0,*65
1517173649.63,4970,8.13,73756.0,-6.07,-5.69,-5.85,0,*69
1517173650.84,4971,8.13,73750.3,-6.05,-5.89,-6.01,0,*6B
1517173652.06,4972,8.19,73754.0,-6.05,-5.81,-6.01,0,*60
1517173653.3,4973,8.19,73760.8,-6.07,-5.93,-6.05,0,*64
1517173654.52,4974,8.19,73766.8,-6.05,-5.89,-6.01,0,*6E
1517173655.73,4975,8.19,73780.5,-6.07,-5.97,-6.05,0,*66
1517173656.95,4976,8.19,73766.3,-6.07,-5.97,-6.05,0,*65
1517173658.17,4977,8.19,73794.8,-6.05,-5.93,-6.01,0,*66
1517173659.41,4978,8.19,73778.3,-6.05,-5.89,-5.77,0,*60
1517173660.68,4979,8.13,73764.0,-6.07,-5.85,-5.81,0,*66
1517173661.88,4980,8.19,73778.8,-6.05,-5.55,-5.55,0,*66
1517173663.13,4981,8.13,73790.3,-6.05,-5.31,-5.27,0,*60
1517173664.38,4982,8.13,73770.8,-6.05,-5.11,-5.11,0,*64
1517173665.61,4983,8.19,73766.5,-6.05,-4.77,-4.73,0,*61
1517173666.85,4984,8.19,73724.5,-6.05,-5.15,-5.11,0,*66
1517173668.11,4985,8.19,73724.0,-6.05,-5.23,-5.27,0,*67
1517173669.29,4986,8.19,73756.8,-6.05,-5.43,-5.39,0,*6D
1517173670.53,4987,8.19,73768.8,-5.99,-5.27,-5.35,0,*64
1517173671.78,4988,8.13,73790.3,-6.01,-5.23,-5.27,0,*6E
1517173672.96,4989,8.13,73798.0,-6.01,-5.35,-5.35,0,*6B
1517173674.15,4990,8.13,73810.5,-6.01,-5.39,-5.35,0,*6F
1517173675.34,4991,8.19,73780.8,-6.01,-5.35,-5.35,0,*62
1517173676.58,4992,8.19,73804.5,-5.99,-5.27,-5.35,0,*60
1517173677.81,4993,8.19,73774.0,-5.99,-5.23,-5.35,0,*65
1517173679.08,4994,8.19,73778.3,-5.99,-5.27,-5.27,0,*65
1517173680.32,4995,8.13,73784.3,-5.99,-5.27,-5.39,0,*6B
1517173681.56,4996,8.19,73764.3,-5.99,-5.27,-5.47,0,*61
1517173682.77,4997,8.19,73778.3,-5.99,-5.39,-5.51,0,*68
1517173684.01,4998,8.19,73768.8,-5.99,-5.39,-5.61,0,*64
1517173685.22,4999,8.13,73780.0,-6.01,-5.39,-5.65,0,*63
1517173686.47,5000,8.13,73784.5,-5.99,-5.39,-5.61,0,*6D
1517173687.71,5001,8.13,73784.0,-5.99,-5.23,-5.47,0,*63
1517173688.95,5002,8.19,73802.3,-5.99,-5.23,-5.47,0,*60
1517173690.14,5003,8.13,73780.0,-5.97,-5.35,-5.51,0,*6F
1517173691.35,5004,8.19,73788.0,-5.97,-5.35,-5.61,0,*6B
1517173692.55,5005,8.13,73778.8,-5.97,-5.35,-5.55,0,*6D
1517173693.74,5006,8.19,73794.0,-5.97,-5.35,-5.55,0,*6E
1517173694.97,5007,8.19,73772.8,-5.97,-5.61,-5.73,0,*6A
1517173696.21,5008,8.19,73752.8,-5.97,-5.61,-5.85,0,*6C
1517173697.46,5009,8.19,73742.0,-5.97,-5.69,-5.85,0,*65
1517173698.67,5010,8.19,73714.5,-5.97,-5.43,-5.61,0,*6F
1517173699.92,5011,8.13,73700.8,-5.95,-5.81,-5.85,0,*68
1517173701.15,5012,8.13,73744.5,-5.95,-5.93,-5.97,0,*6B
1517173702.39,5013,8.19,73748.5,-5.97,-5.85,-5.93,0,*6B
1517173703.64,5014,8.13,73740.3,-5.95,-5.85,-5.93,0,*6E
1517173704.89,5015,8.19,73778.8,-5.97,-5.93,-5.93,0,*6A
1517173706.13,5016,8.13,73786.3,-5.97,-5.93,-5.93,0,*69
1517173707.34,5017,8.19,73768.0,-5.97,-6.01,-5.93,0,*60
1517173708.57,5018,8.19,73756.0,-5.95,-5.97,-5.93,0,*61
1517173709.82,5019,8.19,73790.3,-5.95,-5.93,-5.93,0,*64
1517173711.07,5020,8.13,73776.8,-5.95,-5.93,-5.93,0,*6E
1517173712.32,5021,8.13,73778.8,-5.97,-5.93,-5.93,0,*6D
1517173713.53,5022,8.13,73804.3,-5.97,-5.97,-5.93,0,*6A
1517173714.77,5023,8.19,73788.3,-5.97,-5.93,-5.93,0,*6F
1517173716.02,5024,8.13,73784.5,-5.97,-5.93,-5.93,0,*68
1517173717.27,5025,8.19,73800.3,-5.97,-5.93,-5.85,0,*6E
1517173718.51,5026,8.19,73806.5,-5.97,-5.81,-5.85,0,*6E
1517173719.76,5027,8.19,73810.8,-5.95,-5.85,-5.85,0,*69
1517173721.01,5028,8.19,73802.3,-5.97,-5.93,-5.93,0,*64
1517173722.26,5029,8.13,73812.8,-5.95,-5.93,-5.93,0,*67
1517173723.47,5030,8.19,73814.0,-5.97,-5.93,-5.97,0,*69
1517173724.73,5031,8.19,73810.3,-5.95,-5.93,-5.93,0,*6E
1517173725.97,5032,8.19,73808.3,-5.97,-5.93,-5.93,0,*6F
1517173727.21,5033,8.19,73802.5,-5.97,-5.93,-5.93,0,*6E